| time (UTC) | temp C | wind direction | speed KPH | gust KPH | rain 1hr cm | rain 24hr cm | rain mn cm | humidity % | barometer mb |
| 20260506200058 | 15 | 30 | 8.0 | 19.3 | 0.00 | 0.89 | 0.00 | 66 | 1019.8 |
| 20260506194558 | 16 | 349 | 9.7 | 16.1 | 0.00 | 0.89 | 0.00 | 66 | 1019.8 |
| 20260506193056 | 16 | 47 | 6.4 | 20.9 | 0.00 | 0.89 | 0.00 | 64 | 1019.6 |
| 20260506191557 | 15 | 21 | 9.7 | 22.5 | 0.00 | 0.89 | 0.00 | 63 | 1019.6 |
| 20260506190056 | 15 | 322 | 4.8 | 16.1 | 0.00 | 0.89 | 0.00 | 64 | 1019.5 |
| 20260506184559 | 15 | 351 | 8.0 | 16.1 | 0.00 | 0.89 | 0.00 | 65 | 1019.4 |
| 20260506183054 | 15 | 308 | 4.8 | 27.4 | 0.00 | 0.89 | 0.00 | 70 | 1019.4 |
| 20260506181550 | 15 | 47 | 3.2 | 19.3 | 0.00 | 0.89 | 0.00 | 65 | 1019.5 |
| 20260506180049 | 15 | 62 | 3.2 | 16.1 | 0.00 | 0.89 | 0.00 | 71 | 1019.8 |
| 20260506174548 | 14 | 18 | 6.4 | 14.5 | 0.00 | 0.89 | 0.00 | 70 | 1019.9 |
| 20260506173049 | 14 | 41 | 4.8 | 14.5 | 0.00 | 0.89 | 0.00 | 70 | 1019.9 |
| 20260506171549 | 13 | 59 | 3.2 | 17.7 | 0.00 | 0.89 | 0.00 | 62 | 1019.8 |
| 20260506170037 | 13 | 289 | 3.2 | 12.9 | 0.00 | 0.89 | 0.00 | 55 | 1019.7 |
| 20260506164547 | 12 | 334 | 4.8 | 17.7 | 0.00 | 0.91 | 0.00 | 60 | 1019.7 |
| 20260506163032 | 12 | 17 | 4.8 | 17.7 | 0.00 | 0.91 | 0.00 | 66 | 1019.7 |
| 20260506161528 | 11 | 358 | 6.4 | 9.7 | 0.00 | 0.91 | 0.00 | 74 | 1019.5 |
| 20260506160024 | 11 | 354 | 4.8 | 9.7 | 0.00 | 0.91 | 0.00 | 81 | 1019.6 |
| 20260506154521 | 10 | 5 | 4.8 | 11.3 | 0.00 | 0.91 | 0.00 | 81 | 1019.4 |
| 20260506153018 | 10 | 3 | 0.0 | 0.0 | 0.00 | 0.91 | 0.00 | 87 | 1019.1 |
| 20260506151516 | 10 | 349 | 0.0 | 6.4 | 0.00 | 0.91 | 0.00 | 92 | 1019.1 |
| 20260506150017 | 9 | 353 | 3.2 | 8.0 | 0.00 | 0.91 | 0.00 | 92 | 1018.7 |
| 20260506144512 | 9 | 344 | 0.0 | 1.6 | 0.00 | 1.07 | 0.00 | 92 | 1018.8 |
| 20260506143009 | 8 | 338 | 0.0 | 11.3 | 0.00 | 1.07 | 0.00 | 92 | 1018.9 |
| 20260506141506 | 8 | 9 | 6.4 | 12.9 | 0.00 | 1.07 | 0.00 | 92 | 1018.7 |
| 20260506140005 | 8 | 20 | 1.6 | 11.3 | 0.00 | 1.07 | 0.00 | 92 | 1018.7 |
| 20260506134559 | 8 | 348 | 0.0 | 6.4 | 0.00 | 1.07 | 0.00 | 92 | 1018.6 |
| 20260506133106 | 8 | 346 | 0.0 | 4.8 | 0.00 | 1.07 | 0.00 | 92 | 1018.7 |
| 20260506131557 | 8 | 330 | 1.6 | 4.8 | 0.00 | 1.07 | 0.00 | 92 | 1018.6 |
| 20260506130051 | 8 | 249 | 1.6 | 4.8 | 0.00 | 1.07 | 0.00 | 92 | 1018.4 |
| 20260506124549 | 8 | 350 | 0.0 | 4.8 | 0.00 | 1.07 | 0.00 | 91 | 1018.1 |
| 20260506123048 | 7 | 50 | 0.0 | 0.0 | 0.00 | 1.07 | 0.00 | 91 | 1017.6 |
| 20260506121553 | -17 | 0.0 | 0.0 | 0.00 | 1.07 | 0.00 | 1018.1 | ||
| 20260506084533 | 7 | 302 | 0.0 | 4.8 | 0.00 | 1.07 | 0.10 | 91 | 1016.5 |
| 20260506083030 | 7 | 334 | 3.2 | 6.4 | 0.00 | 1.07 | 0.10 | 91 | 1016.4 |
| 20260506081528 | 7 | 4 | 3.2 | 6.4 | 0.00 | 1.07 | 0.10 | 91 | 1015.9 |
| 20260506073026 | 7 | 356 | 0.0 | 1.6 | 0.03 | 1.07 | 0.10 | 91 | 1016.1 |
| 20260506071526 | 7 | 2 | 0.0 | 1.6 | 0.05 | 1.07 | 0.10 | 91 | 1015.5 |
| 20260506061531 | 7 | 136 | 0.0 | 0.0 | 0.05 | 1.02 | 0.05 | 90 | 1015.2 |
| 20260506044552 | 7 | 342 | 0.0 | 0.0 | 0.05 | 0.97 | 0.97 | 90 | 1015.6 |
| 20260506043039 | 7 | 353 | 0.0 | 0.0 | 0.05 | 0.94 | 0.94 | 90 | 1014.7 |
| 20260506041547 | 7 | 353 | 0.0 | 0.0 | 0.05 | 0.94 | 0.94 | 90 | 1015.0 |
| 20260506040042 | 7 | 350 | 0.0 | 0.0 | 0.03 | 0.91 | 0.91 | 90 | 1015.6 |
| 20260506034533 | 7 | 355 | 1.6 | 6.4 | 0.03 | 0.91 | 0.91 | 90 | 1015.4 |
| 20260506033031 | 7 | 354 | 0.0 | 0.0 | 0.00 | 0.89 | 0.89 | 90 | 1015.8 |
| 20260506031534 | 7 | 5 | 0.0 | 3.2 | 0.00 | 0.89 | 0.89 | 89 | 1015.2 |
| 20260506030026 | 7 | 32 | 0.0 | 3.2 | 0.03 | 0.89 | 0.89 | 89 | 1014.6 |
| 20260506024531 | 7 | 22 | 1.6 | 3.2 | 0.03 | 0.89 | 0.89 | 89 | 1014.5 |
| 20260506023020 | 7 | 45 | 0.0 | 3.2 | 0.03 | 0.89 | 0.89 | 89 | 1014.1 |
| 20260506021518 | 7 | 111 | 0.0 | 3.2 | 0.10 | 0.89 | 0.89 | 89 | 1014.1 |
| 20260506020015 | 7 | 42 | 4.8 | 8.0 | 0.15 | 0.86 | 0.86 | 89 | 1014.6 |
| 20260506014512 | 7 | 63 | 3.2 | 11.3 | 0.20 | 0.86 | 0.86 | 89 | 1014.2 |
| 20260506013009 | 7 | 66 | 0.0 | 8.0 | 0.23 | 0.84 | 0.84 | 89 | 1014.1 |
| 20260506011507 | 7 | 43 | 0.0 | 3.2 | 0.28 | 0.79 | 0.79 | 89 | 1013.9 |
| 20260506010003 | 7 | 334 | 1.6 | 9.7 | 0.28 | 0.69 | 0.69 | 88 | 1014.3 |
| 20260506004628 | 7 | 356 | 4.8 | 14.5 | 0.28 | 0.66 | 0.66 | 88 | 1013.6 |
| 20260506003057 | 7 | 3 | 8.0 | 16.1 | 0.23 | 0.61 | 0.61 | 88 | 1013.5 |
| 20260506001551 | 7 | 1 | 3.2 | 9.7 | 0.15 | 0.51 | 0.51 | 88 | 1013.6 |
| 20260506000050 | 7 | 55 | 3.2 | 8.0 | 0.08 | 0.41 | 0.41 | 88 | 1013.0 |
| 20260505234608 | 7 | 346 | 3.2 | 8.0 | 0.10 | 0.38 | 0.38 | 88 | 1013.1 |
| 20260505233042 | 7 | 45 | 1.6 | 11.3 | 0.10 | 0.38 | 0.38 | 87 | 1012.8 |
| 20260505231540 | 7 | 42 | 4.8 | 14.5 | 0.08 | 0.36 | 0.36 | 86 | 1012.7 |
| 20260505230036 | 7 | 346 | 4.8 | 14.5 | 0.05 | 0.30 | 0.30 | 85 | 1013.1 |
| 20260505224534 | 8 | 20 | 6.4 | 14.5 | 0.10 | 0.28 | 0.28 | 85 | 1012.0 |
| 20260505223030 | 8 | 355 | 3.2 | 6.4 | 0.10 | 0.28 | 0.28 | 84 | 1012.0 |
| 20260505221529 | 8 | 337 | 0.0 | 3.2 | 0.10 | 0.28 | 0.28 | 84 | 1012.2 |
| 20260505220026 | 8 | 359 | 1.6 | 8.0 | 0.08 | 0.25 | 0.25 | 83 | 1012.0 |
| 20260505214525 | 8 | 31 | 0.0 | 14.5 | 0.00 | 0.18 | 0.18 | 82 | 1012.2 |
| 20260505213023 | 8 | 55 | 8.0 | 16.1 | 0.00 | 0.18 | 0.18 | 80 | 1012.0 |
| 20260505211519 | 8 | 40 | 4.8 | 14.5 | 0.00 | 0.18 | 0.18 | 81 | 1012.3 |
| 20260505210116 | 8 | 78 | 6.4 | 14.5 | 0.00 | 0.18 | 0.18 | 80 | 1012.1 |
| 20260505204523 | 8 | 44 | 3.2 | 11.3 | 0.00 | 0.18 | 0.18 | 80 | 1012.6 |
| 20260505203012 | 8 | 46 | 3.2 | 12.9 | 0.00 | 0.18 | 0.18 | 79 | 1012.7 |
| 20260505201510 | 9 | 32 | 6.4 | 14.5 | 0.00 | 0.18 | 0.18 | 75 | 1013.0 |